Zurück zum Katalog

ONEWEB-0545

AktivKommunikationPO
NORAD 54647·PAYLOAD·🇬🇧 United Kingdom

Gestartet Dec 8, 2022 von Cape Canaveral Space Force Station

Loading…

Nächste Überflüge (nächste 24 Stunden)

TLE

AktuellSource: CelesTrak SupGP

Epoche: Sep 14, 2026, 23:35 UTC

1 54647C 22166F   26257.98281667 -.00002964  00000+0 -71862-2 0  2577
2 54647  87.9279 226.1056 0002530  95.4977 344.4384 13.21832321    10

Verfolge ONEWEB-0545 in Echtzeit mit AllMySat

Download on the App Store